When you browse on this site, cookies collect data to enhance your experience and personalize the content and advertising you see.
Visit our Privacy Policy to learn more. By continuing to use the site, you agree to this use of cookies and data.
EN

Hourly Weather Ouahigouya

Today, 24 September, Thursday

Time Temperature Precipitation Wind Pressure Humidity
00:00 +29°C° 0 mm 3 mps 730 mmHg 64%
01:00 +29°C° 0 mm 3 mps 730 mmHg 66%
02:00 +28°C° 0 mm 3 mps 730 mmHg 67%
03:00 +28°C° 0 mm 3 mps 729 mmHg 69%
04:00 +28°C° 0 mm 3 mps 730 mmHg 70%
05:00 +27°C° 0 mm 3 mps 730 mmHg 72%
06:00 +27°C° 0 mm 3 mps 730 mmHg 73%
07:00 +28°C° 0 mm 4 mps 731 mmHg 69%
08:00 +30°C° 0 mm 4 mps 731 mmHg 64%
09:00 +32°C° 0 mm 5 mps 732 mmHg 60%
10:00 +34°C° 0 mm 5 mps 731 mmHg 53%
11:00 +35°C° 0 mm 4 mps 731 mmHg 47%
12:00 +37°C° 0 mm 4 mps 731 mmHg 40%
13:00 +37°C° 0 mm 4 mps 730 mmHg 38%
14:00 +38°C° 0 mm 3 mps 730 mmHg 36%
15:00 +38°C° 0 mm 3 mps 729 mmHg 34%
16:00 +38°C° 0 mm 3 mps 729 mmHg 36%
17:00 +37°C° 0 mm 3 mps 729 mmHg 38%
18:00 +36°C° 0 mm 3 mps 729 mmHg 41%
19:00 +35°C° 0 mm 3 mps 729 mmHg 43%
20:00 +34°C° 0 mm 3 mps 730 mmHg 45%
21:00 +34°C° 0 mm 3 mps 730 mmHg 47%
22:00 +33°C° 0 mm 3 mps 730 mmHg 51%
23:00 +32°C° 0 mm 4 mps 730 mmHg 56%

Tomorrow, 25 September, Friday

Time Temperature Precipitation Wind Pressure Humidity
00:00 +30°C° 0 mm 4 mps 729 mmHg 60%
01:00 +30°C° 0 mm 4 mps 729 mmHg 64%
02:00 +29°C° 0 mm 4 mps 729 mmHg 67%
03:00 +29°C° 0 mm 5 mps 729 mmHg 71%
04:00 +28°C° 0 mm 4 mps 729 mmHg 73%
05:00 +28°C° 0 mm 4 mps 730 mmHg 74%
06:00 +28°C° 0 mm 4 mps 730 mmHg 76%
07:00 +29°C° 0 mm 4 mps 730 mmHg 70%
08:00 +32°C° 0 mm 5 mps 731 mmHg 64%
09:00 +33°C° 0 mm 5 mps 732 mmHg 58%
10:00 +34°C° 0 mm 5 mps 731 mmHg 53%
11:00 +36°C° 0 mm 4 mps 731 mmHg 47%
12:00 +37°C° 0 mm 4 mps 730 mmHg 42%
13:00 +38°C° 0 mm 4 mps 730 mmHg 38%
14:00 +39°C° 0 mm 3 mps 729 mmHg 34%
15:00 +40°C° 0 mm 2 mps 728 mmHg 30%
16:00 +39°C° 0 mm 3 mps 728 mmHg 32%
17:00 +38°C° 0 mm 3 mps 728 mmHg 34%
18:00 +37°C° 0 mm 3 mps 728 mmHg 36%
19:00 +36°C° 0 mm 3 mps 728 mmHg 40%
20:00 +35°C° 0 mm 4 mps 729 mmHg 43%
21:00 +34°C° 0 mm 4 mps 729 mmHg 47%
22:00 +33°C° 0 mm 4 mps 729 mmHg 50%
23:00 +32°C° 0 mm 4 mps 729 mmHg 53%

Day after tomorrow, 26 September, Saturday

Time Temperature Precipitation Wind Pressure Humidity
00:00 +30°C° 0 mm 4 mps 729 mmHg 55%
01:00 +30°C° 0 mm 4 mps 728 mmHg 59%
02:00 +29°C° 0 mm 4 mps 728 mmHg 62%
03:00 +29°C° 0 mm 4 mps 728 mmHg 65%
04:00 +28°C° 0 mm 4 mps 728 mmHg 68%
05:00 +28°C° 0 mm 3 mps 728 mmHg 70%
06:00 +27°C° 0 mm 3 mps 728 mmHg 73%
07:00 +29°C° 0 mm 4 mps 729 mmHg 68%
08:00 +30°C° 0 mm 5 mps 729 mmHg 63%
09:00 +33°C° 0 mm 5 mps 729 mmHg 59%
10:00 +34°C° 0 mm 5 mps 729 mmHg 52%
11:00 +36°C° 0 mm 5 mps 729 mmHg 45%
12:00 +39°C° 0 mm 5 mps 729 mmHg 39%
13:00 +39°C° 0 mm 5 mps 728 mmHg 37%
14:00 +39°C° 0 mm 5 mps 727 mmHg 35%
15:00 +40°C° 0 mm 4 mps 726 mmHg 33%
16:00 +38°C° 0 mm 4 mps 726 mmHg 35%
17:00 +37°C° 0 mm 4 mps 726 mmHg 38%
18:00 +36°C° 0 mm 4 mps 726 mmHg 41%
19:00 +34°C° 0 mm 5 mps 727 mmHg 49%
20:00 +33°C° 0 mm 7 mps 727 mmHg 57%
21:00 +31°C° 0 mm 8 mps 728 mmHg 64%
22:00 +29°C° 0.2 mm 7 mps 728 mmHg 66%
23:00 +29°C° 0.2 mm 6 mps 728 mmHg 67%

27 September, Sunday

Time Temperature Precipitation Wind Pressure Humidity
00:00 +28°C° 0.2 mm 6 mps 728 mmHg 69%
01:00 +28°C° 0 mm 6 mps 727 mmHg 67%
02:00 +27°C° 0 mm 6 mps 727 mmHg 66%
03:00 +27°C° 0 mm 6 mps 727 mmHg 65%
04:00 +27°C° 0 mm 5 mps 727 mmHg 65%
05:00 +27°C° 0 mm 4 mps 727 mmHg 66%
06:00 +27°C° 0 mm 4 mps 727 mmHg 66%
07:00 +29°C° 0 mm 4 mps 728 mmHg 62%
08:00 +30°C° 0 mm 4 mps 728 mmHg 58%
09:00 +32°C° 0 mm 5 mps 729 mmHg 54%
10:00 +33°C° 0 mm 5 mps 729 mmHg 50%
11:00 +35°C° 0 mm 5 mps 728 mmHg 46%
12:00 +36°C° 0 mm 5 mps 728 mmHg 42%
13:00 +36°C° 0 mm 5 mps 728 mmHg 41%
14:00 +37°C° 0 mm 4 mps 727 mmHg 39%
15:00 +37°C° 0 mm 3 mps 727 mmHg 37%
16:00 +37°C° 0 mm 3 mps 727 mmHg 39%
17:00 +36°C° 0 mm 3 mps 727 mmHg 41%
18:00 +35°C° 0 mm 3 mps 727 mmHg 43%
19:00 +34°C° 0.1 mm 3 mps 727 mmHg 46%
20:00 +34°C° 0.1 mm 3 mps 728 mmHg 49%
21:00 +33°C° 0.1 mm 4 mps 729 mmHg 52%
22:00 +31°C° 0.4 mm 3 mps 729 mmHg 57%
23:00 +29°C° 0.4 mm 2 mps 729 mmHg 62%

28 September, Monday

Time Temperature Precipitation Wind Pressure Humidity
00:00 +28°C° 0.4 mm 1 mps 728 mmHg 67%
01:00 +28°C° 0 mm 2 mps 728 mmHg 67%
02:00 +28°C° 0 mm 2 mps 728 mmHg 67%
03:00 +28°C° 0 mm 2 mps 728 mmHg 67%
04:00 +27°C° 0 mm 2 mps 728 mmHg 70%
05:00 +27°C° 0 mm 2 mps 728 mmHg 72%
06:00 +27°C° 0 mm 2 mps 728 mmHg 74%
07:00 +29°C° 0 mm 3 mps 729 mmHg 68%
08:00 +30°C° 0 mm 4 mps 729 mmHg 63%
09:00 +33°C° 0 mm 5 mps 730 mmHg 57%
10:00 +34°C° 0 mm 5 mps 729 mmHg 51%
11:00 +36°C° 0 mm 4 mps 729 mmHg 45%
12:00 +38°C° 0 mm 4 mps 729 mmHg 39%
13:00 +38°C° 0 mm 3 mps 728 mmHg 36%
14:00 +38°C° 0 mm 2 mps 728 mmHg 33%
15:00 +39°C° 0 mm 2 mps 727 mmHg 30%
16:00 +36°C° 0.2 mm 2 mps 727 mmHg 39%
17:00 +34°C° 0.2 mm 3 mps 727 mmHg 48%
18:00 +32°C° 0.2 mm 4 mps 727 mmHg 57%
19:00 +31°C° 0.4 mm 3 mps 727 mmHg 56%
20:00 +31°C° 0.4 mm 2 mps 728 mmHg 56%
21:00 +30°C° 0.4 mm 1 mps 729 mmHg 55%
22:00 +30°C° 0 mm 1 mps 729 mmHg 56%
23:00 +30°C° 0 mm 1 mps 729 mmHg 57%

29 September, Tuesday

Time Temperature Precipitation Wind Pressure Humidity
00:00 +30°C° 0 mm 1 mps 729 mmHg 58%
01:00 +29°C° 0 mm 1 mps 729 mmHg 59%
02:00 +29°C° 0 mm 1 mps 728 mmHg 60%
03:00 +29°C° 0 mm 1 mps 728 mmHg 61%
04:00 +28°C° 0 mm 2 mps 728 mmHg 62%
05:00 +28°C° 0 mm 3 mps 728 mmHg 64%
06:00 +28°C° 0 mm 3 mps 729 mmHg 66%
07:00 +29°C° 0 mm 3 mps 729 mmHg 62%
08:00 +31°C° 0 mm 3 mps 729 mmHg 57%
09:00 +33°C° 0 mm 3 mps 730 mmHg 53%
10:00 +35°C° 0 mm 3 mps 729 mmHg 48%
11:00 +36°C° 0 mm 2 mps 729 mmHg 42%
12:00 +38°C° 0 mm 2 mps 729 mmHg 36%
13:00 +38°C° 0 mm 2 mps 728 mmHg 33%
14:00 +39°C° 0 mm 2 mps 728 mmHg 30%
15:00 +40°C° 0 mm 1 mps 727 mmHg 27%
16:00 +39°C° 0 mm 2 mps 727 mmHg 30%
17:00 +37°C° 0 mm 2 mps 727 mmHg 34%
18:00 +36°C° 0 mm 2 mps 727 mmHg 37%
19:00 +35°C° 0.1 mm 2 mps 728 mmHg 40%
20:00 +33°C° 0.1 mm 1 mps 728 mmHg 43%
21:00 +33°C° 0.1 mm 1 mps 729 mmHg 46%
22:00 +32°C° 0 mm 1 mps 728 mmHg 46%
23:00 +32°C° 0 mm 2 mps 728 mmHg 46%
Show more